{"data":{"norad_id":59360,"epoch":"2026-05-24T20:21:52.488288Z","epoch_age_seconds":84577,"freshness":"FRESH","line1":"1 59360U 24060N   26144.84852417  .00000161  00000+0  15395-4 0  9995","line2":"2 59360  43.0032 189.4718 0001423 272.5487  87.5201 15.27575893121717","mean_motion":15.27575893,"eccentricity":0.0001423,"inclination_deg":43.0032,"raan_deg":189.4718,"arg_perigee_deg":272.5487,"mean_anomaly_deg":87.5201,"bstar":1.5395e-5,"rev_number":12171,"period_min":94.26700215673,"perigee_km":482.08504537124,"apogee_km":484.03774243414,"semimajor_km":6861.1983939027,"source":"CELESTRAK","updated_at":"2026-05-25T13:38:18.910713Z"}}